User: anonymous   Login
Location: Bishop�s Knoyle
(51.0728°N, 2.1714°W)
Time: 09:15:31
(UTC+00:00)
Language:

Landsat 7 - Orbit

View from above orbital plane
View from above orbital plane
View from above satellite
View from above satellite

Ground track
Ground track

The orbit data is extracted from the following two-line orbital elements,

1 25682U 99020A   20336.89070513  .00000069  00000-0  25011-4 0  9998
2 25682  98.0620  34.4466 0001675  80.2678 279.8702 14.57189396150629
Epoch (UTC): 01 December 2020 21:22:36
Eccentricity: 0.0001675
inclination: 98.0620°
perigee height: 701 km
apogee height: 703 km
right ascension of ascending node: 34.4466°
argument of perigee: 80.2678°
revolutions per day: 14.57189396
mean anomaly at epoch: 279.8702°
orbit number at epoch: 15062

The dashed part of the orbit path shows where the satellite is in the earth's shadow,  

DLR